Вернуться в каталог

NOAA 16 DEB

АктивенSSO
NORAD 41226·DEBRIS·🇺🇸 United States

Запущен Sep 21, 2000 с Vandenberg Space Force Base

Loading…

Ближайшие Пролёты (ближайшие 24 часа)

TLE

СвежийSource: Space-Track

Эпоха: Sep 14, 2026, 13:59 UTC

1 41226U 00055EF  26257.58307786  .00001525  00000-0  75113-3 0  9994
2 41226  98.6977 297.6944 0027455 359.2341   0.8789 14.18828787553520

Отслеживайте NOAA 16 DEB в реальном времени с AllMySat

Download on the App Store